Flag for Poland Weather past 2 weeks in Elbląg, Poland

Now
38 °F

Overcast.


Feels Like: 35 °F
Forecast: 29 / 43 °F
Wind: 5 mph from South

Location: Hel

Current Time: Oct 24, 2014 at 9:09:51 AM

Latest Report: Oct 24, 2014 at 8:00 AM


Visibility: 13 mi

Pressure: 30.37 "Hg

Humidity: 72%

Dew point: 30 °F

Location of ElblągLocation

Historic Weather in Elbląg — Graph

°F

Elbląg temperature yesterday

Maximum temperature yesterday: 43 °F (at 12:00 AM)
Minimum temperature yesterday: 40 °F (at 8:00 AM)
Average temperature yesterday: 42 °F

Past Weeks' High & Low Weather Summary

 TemperatureHumidityPressure
High64 °F (Oct 10, 12:00 PM)99% (Oct 12, 9:00 AM)30.36 "Hg (Oct 12, 9:00 AM)
Low39 °F (Oct 24, 6:00 AM)69% (Oct 24, 7:00 AM)29.57 "Hg (Oct 22, 6:00 AM)
Average53 °F91%29.89 "Hg
* Reported Oct 9 7:00 AM — Oct 24 7:00 AM, Elbląg, Weather by CustomWeather, © 2014

Note: Actual official high and low records may vary slightly from our data, if they occured in-between our weather recording intervals... More about our weather records

Advertising

Elbląg weather history for previous 24 hours

 ConditionsComfort  
Time TempWeatherWind HumidityBarometerVisibility
7:00 AM
Oct 24
39 °FOvercast.5 mph69%30.36 "Hg12 mi
6:00 AM39 °FOvercast.5 mph71%30.36 "Hg12 mi
5:00 AM39 °FOvercast.5 mph70%30.35 "Hg12 mi
4:00 AM40 °FOvercast.5 mph71%30.33 "Hg12 mi
3:00 AM40 °FOvercast.5 mph73%30.34 "Hg12 mi
2:00 AM41 °FOvercast.5 mph76%30.34 "Hg12 mi
1:00 AM41 °FOvercast.5 mph77%30.34 "Hg12 mi
12:00 AM41 °FOvercast.5 mph76%30.33 "Hg12 mi
11:00 PM
Oct 23
42 °FOvercast.5 mph77%30.33 "Hg12 mi
10:00 PM42 °FOvercast.5 mph79%30.32 "Hg12 mi
9:00 PM43 °FOvercast.5 mph80%30.30 "Hg12 mi
8:00 PM43 °FOvercast.5 mph82%30.29 "Hg12 mi
7:00 PM43 °FOvercast.3 mph82%30.28 "Hg12 mi
6:00 PM43 °FOvercast.3 mph83%30.27 "Hg12 mi
5:00 PM43 °FOvercast.2 mph83%30.26 "Hg12 mi
4:00 PM43 °FOvercast.5 mph83%30.25 "Hg12 mi
3:00 PM42 °FOvercast.3 mph84%30.24 "Hg12 mi
2:00 PM42 °FOvercast.2 mph85%30.24 "Hg12 mi
1:00 PM42 °FLow clouds.3 mph88%30.23 "Hg12 mi
12:00 PM41 °FLow clouds.3 mph90%30.22 "Hg9 mi
11:00 AM41 °FLow clouds.3 mph88%30.21 "Hg12 mi
10:00 AM40 °FLow clouds.3 mph89%30.19 "Hg12 mi
9:00 AM40 °FLow clouds.3 mph90%30.18 "Hg12 mi
Weather by CustomWeather, © 2014

See weather overviewHow to use our weather pages